Satellite-Ground Cal/Val Region Overpasses Predictions

Prediction of Satellite NPP Overpassing Cal/Val Region: PacNW

Region Location: (Latitude: 10.00, Longitude: 139.50) to (Latitude: 22.70, Longitude: 165.60).

Table of predicted overpasses for the next 14.0 days since TLE Epoch: 2/5/2023
Interval Starting Time Starting Location Ending Time Ending Location
1 02/05/2023 03:25:21 ( 10.05, 148.79) 02/05/2023 03:28:56 ( 22.67, 145.78)
2 02/05/2023 15:57:14 ( 22.67, 146.05) 02/05/2023 16:00:49 ( 10.05, 143.04)
3 02/06/2023 03:06:18 ( 10.00, 153.56) 02/06/2023 03:09:54 ( 22.68, 150.54)
4 02/06/2023 15:38:12 ( 22.66, 150.80) 02/06/2023 15:41:47 ( 10.04, 147.80)
5 02/07/2023 02:47:17 ( 10.01, 158.32) 02/07/2023 02:50:53 ( 22.69, 155.29)
6 02/07/2023 15:19:11 ( 22.65, 155.56) 02/07/2023 15:22:46 ( 10.03, 152.55)
7 02/08/2023 02:28:15 ( 10.02, 163.07) 02/08/2023 02:31:50 ( 22.65, 160.07)
8 02/08/2023 15:00:08 ( 22.70, 160.33) 02/08/2023 15:03:44 ( 10.02, 157.31)
9 02/09/2023 02:11:56 ( 19.55, 165.59) 02/09/2023 02:12:49 ( 22.66, 164.82)
10 02/09/2023 03:50:44 ( 10.04, 142.46) 02/09/2023 03:54:15 ( 22.43, 139.51)
11 02/09/2023 14:41:07 ( 22.69, 165.09) 02/09/2023 14:44:43 ( 10.01, 162.07)
12 02/09/2023 16:22:37 ( 22.68, 139.72) 02/09/2023 16:22:51 ( 21.86, 139.51)
13 02/10/2023 03:31:43 ( 10.06, 147.21) 02/10/2023 03:35:18 ( 22.68, 144.20)
14 02/10/2023 16:03:35 ( 22.67, 144.47) 02/10/2023 16:07:10 ( 10.05, 141.46)
15 02/11/2023 03:12:40 ( 10.01, 151.98) 02/11/2023 03:16:16 ( 22.69, 148.96)
16 02/11/2023 15:44:34 ( 22.65, 149.23) 02/11/2023 15:48:09 ( 10.04, 146.22)
17 02/12/2023 02:53:39 ( 10.03, 156.74) 02/12/2023 02:57:14 ( 22.65, 153.73)
18 02/12/2023 15:25:31 ( 22.70, 154.00) 02/12/2023 15:29:07 ( 10.02, 150.98)
19 02/13/2023 02:34:37 ( 10.04, 161.50) 02/13/2023 02:38:12 ( 22.66, 158.49)
20 02/13/2023 15:06:30 ( 22.68, 158.76) 02/13/2023 15:10:06 ( 10.00, 155.73)
21 02/14/2023 02:16:25 ( 12.94, 165.59) 02/14/2023 02:19:11 ( 22.68, 163.24)
22 02/14/2023 03:57:05 ( 10.01, 140.89) 02/14/2023 03:58:46 ( 15.94, 139.51)
23 02/14/2023 14:47:28 ( 22.66, 163.51) 02/14/2023 14:51:03 ( 10.05, 160.50)
24 02/15/2023 03:38:03 ( 10.03, 145.65) 02/15/2023 03:41:38 ( 22.65, 142.64)
25 02/15/2023 14:31:37 ( 11.50, 165.60) 02/15/2023 14:32:02 ( 10.03, 165.26)
26 02/15/2023 16:09:56 ( 22.70, 142.91) 02/15/2023 16:13:32 ( 10.02, 139.88)
27 02/16/2023 03:19:02 ( 10.04, 150.40) 02/16/2023 03:22:37 ( 22.67, 147.39)
28 02/16/2023 15:50:54 ( 22.68, 147.66) 02/16/2023 15:54:30 ( 10.00, 144.64)
29 02/17/2023 02:59:59 ( 10.01, 155.17) 02/17/2023 03:03:35 ( 22.69, 152.15)
30 02/17/2023 15:31:53 ( 22.66, 152.42) 02/17/2023 15:35:28 ( 10.04, 149.41)
31 02/18/2023 02:40:58 ( 10.03, 159.93) 02/18/2023 02:44:33 ( 22.65, 156.92)
